Regional Weather Roundup
Issued by NWS

Home | Current Version | Previous Version | Graphics & Text | Print | Product List | Glossary On
Versions: 1 2 3 4 5 6 7 8 9 10 11 12 13 14 15 16 17 18 19 20 21 22 23 24 25 26 27 28 29 30 31 32 33 34 35 36 37 38 39 40 41 42 43 44 45 46 47 48 49 50
000
ASUS43 KBIS 240702
RWRND

NORTH DAKOTA REGIONAL WEATHER ROUNDUP
NATIONAL WEATHER SERVICE BISMARCK ND
200 AM CDT SAT SEP 24 2016

NOTE: "FAIR" INDICATES FEW OR NO CLOUDS BELOW 12,000 FEET WITH NO
SIGNIFICANT WEATHER AND/OR OBSTRUCTIONS TO VISIBILITY.


NDZ001>003-009>011-017-240800-
NORTHWEST NORTH DAKOTA

CITY           SKY/WX    TMP DP  RH WIND       PRES   REMARKS
WILLISTON      CLOUDY    56  55  97 CALM      29.83S FOG
MINOT          LGT RAIN  59  59 100 E6        29.82F
MINOT AFB      CLOUDY    58  58  99 E5        29.82S
$$

NDZ018>021-031>035-040>046-240800-
SOUTHWEST NORTH DAKOTA

CITY           SKY/WX    TMP DP  RH WIND       PRES   REMARKS
BISMARCK       CLOUDY    63  62  97 N8        29.80F
DICKINSON      FOG       56  56 100 E9        29.75R VSB 1
GARRISON         N/A     59  59 100 E10       29.79F
HETTINGER ARPT CLOUDY    59  58  96 NW5       29.77R
$$

NDZ004>008-012>016-024-026-027-054-240800-
NORTHEAST NORTH DAKOTA

CITY           SKY/WX    TMP DP  RH WIND       PRES   REMARKS
GRAND FORKS    CLOUDY    59  56  89 NE10      29.97R
GRND FRKS AFB  CLOUDY    57  56  97 E12       29.96F FOG
DEVILS LAKE    RAIN      58  57  97 E20       29.89F
$$

NDZ022-023-025-028>030-036>039-047>053-240800-
SOUTHEAST NORTH DAKOTA

CITY           SKY/WX    TMP DP  RH WIND       PRES   REMARKS
FARGO          CLOUDY    65  60  84 SE20G30   29.92F
JAMESTOWN      CLOUDY    64  63  96 SE15G21   29.87S
$$





USA.gov is the U.S. government's official web portal to all federal, state and local government web resources and services.